Regional Weather Roundup
Issued by NWS

Home | Current Version | Previous Version | Text Only | Print | Product List | Glossary Off
Versions: 1 2 3 4 5 6 7 8 9 10 11 12 13 14 15 16 17 18 19 20 21 22 23 24 25 26 27 28

000
ASUS45 KSLC 241810
RWRUT

UTAH REGIONAL WEATHER ROUNDUP
NATIONAL WEATHER SERVICE SALT LAKE CITY UT
1200 PM MDT WED MAY 24 2017

UTZ001>011-023>025-241900-

NORTHERN UTAH

CITY           SKY/WX    TMP DP  RH WIND       PRES   REMARKS
BRIGHAM CITY   PTSUNNY   74  36  24 S8        29.77F
DUGWAY         MOSUNNY   84  28  13 W9G18     29.79F
HILL AFB       PTSUNNY   75  37  25 S8        29.79F
LOGAN          PTSUNNY   75  46  35 VRB7      29.75F
OGDEN          MOSUNNY   78  38  23 S9        29.77F
SALT LAKE CITY MOSUNNY   82  36  19 VRB7      29.77F
TOOELE VALLEY  SUNNY     82  37  20 SW15      29.78F
WENDOVER       SUNNY     84  34  16 W13G22    29.76F
HEBER CITY     SUNNY     77  30  18 SW10G21   29.84F
WEST JORDAN    PTSUNNY   76  51  41 SE15      29.81F

$$

UTZ011>015-024>027-241900-

CENTRAL/NORTHEAST UTAH

CITY           SKY/WX    TMP DP  RH WIND       PRES   REMARKS
PROVO AIRPORT  SUNNY     74  44  34 W6        29.83F
MOAB/CANYONLAN SUNNY     80  31  16 SE8       29.83F
DELTA          SUNNY     79  28  15 SW5       29.86F
PRICE          SUNNY     72  31  22 S7        29.91F
ROOSEVELT      SUNNY     72  36  26 E5        29.85F
VERNAL         SUNNY     71  36  27 VRB5      29.84F

$$

UTZ013>016-019>022-027-241900-

SOUTHERN UTAH

CITY           SKY/WX    TMP DP  RH WIND       PRES   REMARKS
BRYCE CANYON   MOSUNNY   73  24  16 W16G30    30.07F
CEDAR CITY     SUNNY     83  28  13 S17G26    29.93F
MILFORD        SUNNY     85  28  12 SW10G17   29.86F
ST GEORGE      CLEAR     83  33  16 CALM      29.81F
HANKSVILLE     SUNNY     81  30  16 CALM      29.85F
BLANDING       SUNNY     74  32  21 SW9       30.04F

$$

REGIONAL REPORTS     COLORADO/ARIZONA

CITY           SKY/WX    TMP DP  RH WIND       PRES   REMARKS
CRAIG, CO      SUNNY     72  34  24 SW18G25   29.88F
GRAND JUNCTION SUNNY     73  32  22 CALM      29.87F
RIFLE, CO      SUNNY     70  31  23 VRB6      29.90F
MONTROSE, CO   SUNNY     74  31  20 VRB3      29.94F
CORTEZ, CO     SUNNY     75  37  25 S10G17    29.99F
COLORADO CITY    N/A     90  30  12 W15G25    29.95F
PAGE, AZ       SUNNY     80  34  19 VRB5      29.88F
GRAND CANYON   SUNNY     78  24  13 SW15G28   30.08F
KINGMAN, AZ    SUNNY     94  29  10 SW16G26   29.86F
FLAGSTAFF, AZ  SUNNY     75  21  13 W14G25    30.11F

$$

REGIONAL REPORTS    NEVADA/IDAHO/WYOMING

CITY           SKY/WX    TMP DP  RH WIND       PRES   REMARKS
LAS VEGAS, NV  MOSUNNY   98  17   5 S17G23    29.71F HX  91
ELY, NY        SUNNY     78  29  16 W9        29.94F
ELKO, NV       SUNNY     77  36  22 SW14G22   29.84F
POCATELLO, ID  MOSUNNY   73  41  31 SW31G46   29.72F
BURLEY, ID     SUNNY     70  42  36 W17G23    29.76F
FORT BRIDGER,    N/A     72  32  23 W25G39    29.91F
EVANSTON, WY     N/A    N/A N/A N/A MISG        N/A
ROCK SPRINGS,  MOSUNNY   73  31  21 W30G39    29.82F
KEMMERER, WY     N/A     68  32  26 W25G41    29.87F

$$




USA.gov is the U.S. government's official web portal to all federal, state and local government web resources and services.